Regional Weather Roundup
Issued by NWS

Home | Current Version | Previous Version | Text Only | Print | Product List | Glossary On
Versions: 1 2 3 4 5 6 7 8 9 10 11 12 13 14 15 16 17 18 19 20 21 22 23 24 25 26 27 28 29 30 31 32 33 34 35 36 37 38 39 40 41 42 43 44 45 46 47 48 49 50
000
ASUS42 KKEY 052010
RWRKEY

FLORIDA REGIONAL WEATHER ROUNDUP FOR THE FLORIDA KEYS
NATIONAL WEATHER SERVICE KEY WEST FLORIDA
300 PM EST THU MAR 05 2015

...SOUTH FLORIDA AND THE KEYS...

CITY           SKY/WX    TMP DP  RH WIND       PRES   REMARKS
FORT MYERS     MOSUNNY   81  70  69 SW15G21   30.08F
SW REGIONAL AP SUNNY     84  68  58 SW14      30.08F
NAPLES         PTSUNNY   82  71  69 S14       30.08F
MIAMI          MOSUNNY   83  66  56 SE12G21   30.09F
WEST KENDALL   SUNNY     83  68  60 S13G20    30.09F
HOMESTEAD      SUNNY     82  69  64 SE9       30.10S
MARATHON       MOSUNNY   84  73  69 SE7       30.09F HX  90
BOCA CHICA NAS MOSUNNY   81  71  71 SE10      30.08F
KEY WEST INTL  SUNNY     80  73  79 SE8       30.08F

...INTERNATIONAL WEATHER...

CITY           SKY/WX    TMP DP  RH WIND       PRES   REMARKS
NASSAU BAHAMAS MOSUNNY   81  70  69 S12       30.11F
CANCUN MEXICO  MOSUNNY   84  73  70 SE16      30.01F HX  91
COZUMEL MEXICO MOSUNNY   82  70  65 SE14      30.01F

ADJACENT COASTAL WATERS...

STATION/POSITION TIME  SKY/WX   TEMP    WIND        PRES    WAVE
                                AIR SEA DIR/SP/G            HT/PER
                 (UTC)          (F)     (DEG/KT/KT) (MB)    (FT/S)
PULASKI SHOAL LI 1900            76     150/ 10/ 11 1018.7F
SAND KEY         1950            76     130/  8/  9 1018.6F
SOMBRERO KEY     2000            80     140/  7/  7 1019.5F
LONG KEY         1900            78 79   90/  5/  8 1020.1F
MOLASSES REEF    2000            77 76  160/ 11/ 12 1019.1F
FOWEY ROCKS      NOT AVBL
Buoy 42080       NOT AVBL

$$



USA.gov is the U.S. government's official web portal to all federal, state and local government web resources and services.